Location: Voyageurs National Park
(48.5020°N, 92.9292°W)
Time: 04:02:31
(UTC-06:00)

Cosmos 2082 Rocket - Pass Details

Date: 19 January 2018
Orbit: 835 x 852 km, 71.0° (Epoch: 19 February)

Event Time Altitude Azimuth Distance (km) Brightness Sun altitude
Exits shadow 06:51:00 - 326° (NW) 2,762 4.4 -10.5°
Reaches altitude 10° 06:51:49 10° 324° (NW) 2,458 4.1 -10.4°
Maximum altitude 06:57:16 54° 249° (WSW) 1,014 2.4 -9.5°
Drops below altitude 10° 07:02:42 10° 174° (S) 2,440 5.0 -8.7°
Sets 07:05:10 0° 169° (S) 3,370 5.8 -8.3°
